Zurück zum Katalog

ARIANE 42P DEB

AktivLEO
NORAD 44510·DEBRIS·🇫🇷 France

Gestartet Aug 10, 1992 von Guiana Space Centre

Loading…

Nächste Überflüge (nächste 24 Stunden)

TLE

AktuellSource: Space-Track

Epoche: Sep 13, 2026, 23:26 UTC

1 44510U 92052H   26256.97703407  .00000553  00000-0  25756-2 0  9990
2 44510  66.0594 113.3021 0081153 248.7372 110.4964 12.82443886330982

Verfolge ARIANE 42P DEB in Echtzeit mit AllMySat

Download on the App Store